User: anonymous   Login
Location: Unspecified
(0.0000°N, 0.0000°E)
Time: 16:09:38
(UTC+02:00)
Language:

Cosmos 1758 - Orbit

View from above orbital plane
View from above orbital plane
View from above satellite
View from above satellite

Ground track
Ground track

The orbit data is extracted from the following two-line orbital elements,

1 16791U 86046A   16151.17323096  .00000839  00000-0  58566-4 0  9997
2 16791  82.4721  45.1301 0015745 316.7768  43.2221 15.04005784628109
Epoch (UTC): 30 May 2016 04:09:27
Eccentricity: 0.0015745
inclination: 82.4721°
perigee height: 543 km
apogee height: 565 km
right ascension of ascending node: 45.1301°
argument of perigee: 316.7768°
revolutions per day: 15.04005784
mean anomaly at epoch: 43.2221°
orbit number at epoch: 62810

The dashed part of the orbit path shows where the satellite is in the earth's shadow,  

DLR